Time,TemperatureF,DewpointF,PressureIn,WindDirection,WindDirectionDegrees,WindSpeedMPH,WindSpeedGustMPH,Humidity,HourlyPrecipIn,Conditions,Clouds,dailyrainin,SoftwareType,DateUTC
2013-01-23 00:02:00,18.0,13.0,30.21,NE,53,0.0,0.0,79,0.00,,,0.00,,2013-01-23 06:02:00,
2013-01-23 00:12:00,18.0,13.0,30.21,NE,53,0.0,0.0,79,0.00,,,0.00,,2013-01-23 06:12:00,
2013-01-23 00:22:00,18.0,13.0,30.21,NE,53,0.0,0.0,79,0.00,,,0.00,,2013-01-23 06:22:00,
2013-01-23 00:32:00,17.0,12.0,30.21,NE,53,0.0,0.0,80,0.00,,,0.00,,2013-01-23 06:32:00,
2013-01-23 00:42:00,17.0,12.0,30.21,NE,53,0.0,0.0,80,0.00,,,0.00,,2013-01-23 06:42:00,
2013-01-23 00:52:00,17.0,12.0,30.21,NE,53,0.0,0.0,80,0.00,,,0.00,,2013-01-23 06:52:00,
2013-01-23 01:02:00,17.0,12.0,30.20,NE,53,0.0,0.0,80,0.00,,,0.00,,2013-01-23 07:02:00,
2013-01-23 01:12:00,17.0,12.0,30.20,NE,53,0.0,0.0,80,0.00,,,0.00,,2013-01-23 07:12:00,
2013-01-23 01:22:00,17.0,12.0,30.20,NE,53,0.0,0.0,80,0.00,,,0.00,,2013-01-23 07:22:00,
2013-01-23 01:33:00,17.0,12.0,30.20,NE,53,0.0,0.0,80,0.00,,,0.00,,2013-01-23 07:33:00,
2013-01-23 01:42:00,17.0,12.0,30.20,NE,53,0.0,0.0,80,0.00,,,0.00,,2013-01-23 07:42:00,
2013-01-23 01:52:00,16.0,11.0,30.20,NE,53,0.0,0.0,80,0.00,,,0.00,,2013-01-23 07:52:00,
2013-01-23 02:02:00,16.0,11.0,30.19,NE,53,0.0,0.0,80,0.00,,,0.00,,2013-01-23 08:02:00,
2013-01-23 02:13:00,16.0,11.0,30.19,NE,53,0.0,0.0,80,0.00,,,0.00,,2013-01-23 08:13:00,
2013-01-23 02:22:00,15.0,10.0,30.19,NE,53,0.0,0.0,80,0.00,,,0.00,,2013-01-23 08:22:00,
2013-01-23 02:33:00,15.0,10.0,30.19,NE,53,0.0,0.0,81,0.00,,,0.00,,2013-01-23 08:33:00,
2013-01-23 02:42:00,15.0,10.0,30.19,NE,53,0.0,0.0,81,0.00,,,0.00,,2013-01-23 08:42:00,
2013-01-23 02:52:00,15.0,10.0,30.19,NE,53,0.0,0.0,81,0.00,,,0.00,,2013-01-23 08:52:00,
2013-01-23 03:03:00,15.0,11.0,30.19,NE,53,0.0,1.0,82,0.00,,,0.00,,2013-01-23 09:03:00,
2013-01-23 03:12:00,15.0,11.0,30.19,NE,53,0.0,1.0,82,0.00,,,0.00,,2013-01-23 09:12:00,
2013-01-23 03:22:00,15.0,10.0,30.19,NE,53,0.0,0.0,81,0.00,,,0.00,,2013-01-23 09:22:00,
2013-01-23 03:32:00,15.0,10.0,30.19,NE,53,0.0,1.0,81,0.00,,,0.00,,2013-01-23 09:32:00,
2013-01-23 03:43:00,15.0,10.0,30.19,NE,53,0.0,1.0,81,0.00,,,0.00,,2013-01-23 09:43:00,
2013-01-23 03:52:00,15.0,11.0,30.19,NE,53,0.0,0.0,82,0.00,,,0.00,,2013-01-23 09:52:00,
2013-01-23 04:03:00,15.0,11.0,30.19,NE,53,0.0,1.0,82,0.00,,,0.00,,2013-01-23 10:03:00,
2013-01-23 04:12:00,15.0,11.0,30.19,NE,53,0.0,1.0,82,0.00,,,0.00,,2013-01-23 10:12:00,
2013-01-23 04:23:00,15.0,11.0,30.19,NE,53,0.0,1.0,82,0.00,,,0.00,,2013-01-23 10:23:00,
2013-01-23 04:33:00,15.0,11.0,30.19,NE,53,0.0,2.0,82,0.00,,,0.00,,2013-01-23 10:33:00,
2013-01-23 04:43:00,15.0,11.0,30.19,NE,53,0.0,2.0,82,0.00,,,0.00,,2013-01-23 10:43:00,
2013-01-23 04:52:00,14.0,10.0,30.19,NE,53,0.0,1.0,83,0.00,,,0.00,,2013-01-23 10:52:00,
2013-01-23 05:02:00,14.0,10.0,30.19,NE,53,0.0,1.0,82,0.00,,,0.00,,2013-01-23 11:02:00,
2013-01-23 05:12:00,14.0,10.0,30.19,NE,53,0.0,1.0,82,0.00,,,0.00,,2013-01-23 11:12:00,
2013-01-23 05:23:00,14.0,10.0,30.17,North,350,0.0,2.0,84,0.00,,,0.00,,2013-01-23 11:23:00,
2013-01-23 05:33:00,14.0,10.0,30.17,North,350,0.0,2.0,84,0.00,,,0.00,,2013-01-23 11:33:00,
2013-01-23 05:43:00,14.0,10.0,30.17,North,350,0.0,2.0,84,0.00,,,0.00,,2013-01-23 11:43:00,
2013-01-23 05:53:00,15.0,11.0,30.18,West,261,0.0,3.0,85,0.00,,,0.00,,2013-01-23 11:53:00,
2013-01-23 06:03:00,15.0,11.0,30.18,West,261,0.0,1.0,84,0.00,,,0.00,,2013-01-23 12:03:00,
2013-01-23 06:12:00,15.0,11.0,30.18,West,261,0.0,1.0,84,0.00,,,0.00,,2013-01-23 12:12:00,
2013-01-23 06:22:00,15.0,11.0,30.19,West,261,0.0,2.0,85,0.00,,,0.00,,2013-01-23 12:22:00,
2013-01-23 06:33:00,16.0,12.0,30.18,West,261,0.0,2.0,85,0.00,,,0.00,,2013-01-23 12:33:00,
2013-01-23 06:43:00,16.0,12.0,30.18,West,261,0.0,2.0,85,0.00,,,0.00,,2013-01-23 12:43:00,
2013-01-23 06:53:00,16.0,12.0,30.18,West,261,0.0,2.0,85,0.00,,,0.00,,2013-01-23 12:53:00,
2013-01-23 07:03:00,16.0,12.0,30.18,West,270,0.0,0.0,85,0.00,,,0.00,,2013-01-23 13:03:00,
2013-01-23 07:13:00,16.0,12.0,30.18,West,270,0.0,0.0,85,0.00,,,0.00,,2013-01-23 13:13:00,
2013-01-23 07:23:00,17.0,14.0,30.18,West,270,0.0,1.0,86,0.00,,,0.00,,2013-01-23 13:23:00,
2013-01-23 07:33:00,17.0,13.0,30.18,West,270,0.0,1.0,85,0.00,,,0.00,,2013-01-23 13:33:00,
2013-01-23 07:42:00,17.0,13.0,30.18,West,270,0.0,1.0,85,0.00,,,0.00,,2013-01-23 13:42:00,
2013-01-23 07:52:00,16.0,11.0,30.19,West,270,0.0,0.0,82,0.00,,,0.00,,2013-01-23 13:52:00,
2013-01-23 08:03:00,16.0,11.0,30.19,West,270,0.0,0.0,82,0.00,,,0.00,,2013-01-23 14:03:00,
2013-01-23 08:12:00,16.0,11.0,30.19,West,270,0.0,0.0,82,0.00,,,0.00,,2013-01-23 14:12:00,
2013-01-23 08:23:00,16.0,12.0,30.18,West,270,0.0,1.0,83,0.00,,,0.00,,2013-01-23 14:23:00,
2013-01-23 08:33:00,15.0,11.0,30.19,West,270,0.0,0.0,83,0.00,,,0.00,,2013-01-23 14:33:00,
2013-01-23 08:43:00,15.0,11.0,30.19,West,270,0.0,0.0,83,0.00,,,0.00,,2013-01-23 14:43:00,
2013-01-23 08:53:00,15.0,11.0,30.19,West,270,0.0,0.0,84,0.00,,,0.00,,2013-01-23 14:53:00,
2013-01-23 09:03:00,16.0,12.0,30.20,North,355,0.0,3.0,84,0.00,,,0.00,,2013-01-23 15:03:00,
2013-01-23 09:12:00,16.0,12.0,30.20,North,355,0.0,3.0,84,0.00,,,0.00,,2013-01-23 15:12:00,
2013-01-23 09:23:00,17.0,13.0,30.21,North,355,0.0,0.0,84,0.00,,,0.00,,2013-01-23 15:23:00,
2013-01-23 09:33:00,17.0,13.0,30.22,North,355,0.0,1.0,83,0.00,,,0.00,,2013-01-23 15:33:00,
2013-01-23 09:43:00,17.0,13.0,30.22,North,355,0.0,1.0,83,0.00,,,0.00,,2013-01-23 15:43:00,
2013-01-23 09:53:00,19.0,15.0,30.23,North,355,0.0,0.0,83,0.00,,,0.00,,2013-01-23 15:53:00,
2013-01-23 10:03:00,21.0,16.0,30.23,NNW,336,0.0,2.0,81,0.00,,,0.00,,2013-01-23 16:03:00,
2013-01-23 10:12:00,21.0,16.0,30.23,NNW,336,0.0,2.0,81,0.00,,,0.00,,2013-01-23 16:12:00,
2013-01-23 10:23:00,22.0,16.0,30.24,NNW,336,0.0,2.0,79,0.00,,,0.00,,2013-01-23 16:23:00,
2013-01-23 10:33:00,23.0,17.0,30.25,SSW,209,0.0,4.0,78,0.00,,,0.00,,2013-01-23 16:33:00,
2013-01-23 10:42:00,23.0,17.0,30.25,SSW,209,0.0,4.0,78,0.00,,,0.00,,2013-01-23 16:42:00,
2013-01-23 10:52:00,25.0,19.0,30.26,WSW,249,1.0,3.0,77,0.00,,,0.00,,2013-01-23 16:52:00,
2013-01-23 11:03:00,27.0,20.0,30.27,SW,229,0.0,3.0,74,0.00,,,0.00,,2013-01-23 17:03:00,
2013-01-23 11:12:00,27.0,20.0,30.27,SW,229,0.0,3.0,74,0.00,,,0.00,,2013-01-23 17:12:00,
2013-01-23 11:23:00,28.0,20.0,30.27,SW,229,0.0,1.0,72,0.00,,,0.00,,2013-01-23 17:23:00,
2013-01-23 11:33:00,31.0,22.0,30.27,SW,227,1.0,3.0,69,0.00,,,0.00,,2013-01-23 17:33:00,
2013-01-23 11:42:00,31.0,22.0,30.27,SW,227,1.0,3.0,69,0.00,,,0.00,,2013-01-23 17:42:00,
2013-01-23 11:52:00,33.0,22.0,30.27,SW,234,0.0,3.0,64,0.00,,,0.00,,2013-01-23 17:52:00,
2013-01-23 12:03:00,36.0,21.0,30.26,North,5,1.0,4.0,55,0.00,,,0.00,,2013-01-23 18:03:00,
2013-01-23 12:12:00,36.0,21.0,30.26,North,5,1.0,4.0,55,0.00,,,0.00,,2013-01-23 18:12:00,
2013-01-23 12:23:00,38.0,21.0,30.26,NNE,15,1.0,4.0,49,0.00,,,0.00,,2013-01-23 18:23:00,
2013-01-23 12:33:00,38.0,21.0,30.26,NNE,15,1.0,4.0,49,0.00,,,0.00,,2013-01-23 18:33:00,
2013-01-23 12:43:00,39.0,21.0,30.26,NE,49,1.0,6.0,48,0.00,,,0.00,,2013-01-23 18:43:00,
2013-01-23 12:53:00,40.0,22.0,30.25,North,5,0.0,5.0,48,0.00,,,0.00,,2013-01-23 18:53:00,
2013-01-23 13:03:00,40.0,21.0,30.24,NNE,17,2.0,7.0,46,0.00,,,0.00,,2013-01-23 19:03:00,
2013-01-23 13:13:00,40.0,21.0,30.24,NNE,17,2.0,7.0,46,0.00,,,0.00,,2013-01-23 19:13:00,
2013-01-23 13:23:00,40.0,21.0,30.25,NNE,20,3.0,7.0,46,0.00,,,0.00,,2013-01-23 19:23:00,
2013-01-23 13:33:00,39.0,19.0,30.24,NNW,342,2.0,5.0,45,0.00,,,0.00,,2013-01-23 19:33:00,
2013-01-23 13:43:00,39.0,19.0,30.24,NNW,342,2.0,5.0,45,0.00,,,0.00,,2013-01-23 19:43:00,
2013-01-23 13:53:00,39.0,20.0,30.24,NNE,16,3.0,7.0,46,0.00,,,0.00,,2013-01-23 19:53:00,
2013-01-23 14:03:00,39.0,20.0,30.24,North,5,3.0,7.0,46,0.00,,,0.00,,2013-01-23 20:03:00,
2013-01-23 14:13:00,39.0,20.0,30.24,North,5,3.0,7.0,46,0.00,,,0.00,,2013-01-23 20:13:00,
2013-01-23 14:23:00,38.0,20.0,30.24,NNE,13,3.0,6.0,48,0.00,,,0.00,,2013-01-23 20:23:00,
2013-01-23 14:33:00,38.0,20.0,30.24,NNE,13,3.0,6.0,48,0.00,,,0.00,,2013-01-23 20:33:00,
2013-01-23 14:43:00,38.0,20.0,30.24,NNE,13,3.0,6.0,48,0.00,,,0.00,,2013-01-23 20:43:00,
2013-01-23 14:53:00,38.0,20.0,30.25,NE,38,4.0,11.0,48,0.00,,,0.00,,2013-01-23 20:53:00,
2013-01-23 15:03:00,36.0,19.0,30.27,North,360,4.0,9.0,50,0.00,,,0.00,,2013-01-23 21:03:00,
2013-01-23 15:12:00,36.0,19.0,30.27,North,360,4.0,9.0,50,0.00,,,0.00,,2013-01-23 21:12:00,
2013-01-23 15:23:00,35.0,19.0,30.27,NNE,12,3.0,9.0,52,0.00,,,0.00,,2013-01-23 21:23:00,
2013-01-23 15:33:00,34.0,19.0,30.29,NNE,13,4.0,9.0,53,0.00,,,0.00,,2013-01-23 21:33:00,
2013-01-23 15:42:00,34.0,19.0,30.29,NNE,13,4.0,9.0,53,0.00,,,0.00,,2013-01-23 21:42:00,
2013-01-23 15:52:00,33.0,18.0,30.28,NNW,343,5.0,9.0,54,0.00,,,0.00,,2013-01-23 21:52:00,
2013-01-23 16:02:00,33.0,18.0,30.29,NNE,26,3.0,7.0,54,0.00,,,0.00,,2013-01-23 22:02:00,
2013-01-23 16:12:00,33.0,18.0,30.29,NNE,26,3.0,7.0,54,0.00,,,0.00,,2013-01-23 22:12:00,
2013-01-23 16:23:00,33.0,18.0,30.29,NNE,16,4.0,8.0,54,0.00,,,0.00,,2013-01-23 22:23:00,
2013-01-23 16:33:00,33.0,18.0,30.29,North,360,4.0,9.0,53,0.00,,,0.00,,2013-01-23 22:33:00,
2013-01-23 16:42:00,33.0,18.0,30.29,North,360,4.0,9.0,53,0.00,,,0.00,,2013-01-23 22:42:00,
2013-01-23 16:53:00,32.0,17.0,30.29,North,10,1.0,8.0,54,0.00,,,0.00,,2013-01-23 22:53:00,
2013-01-23 17:03:00,32.0,17.0,30.29,NE,38,0.0,7.0,54,0.00,,,0.00,,2013-01-23 23:03:00,
2013-01-23 17:12:00,32.0,17.0,30.29,NE,38,0.0,7.0,54,0.00,,,0.00,,2013-01-23 23:12:00,
2013-01-23 17:23:00,32.0,17.0,30.29,NE,38,0.0,7.0,54,0.00,,,0.00,,2013-01-23 23:23:00,
2013-01-23 17:33:00,30.0,16.0,30.31,North,9,2.0,6.0,56,0.00,,,0.00,,2013-01-23 23:33:00,
2013-01-23 17:43:00,30.0,16.0,30.31,North,9,2.0,6.0,56,0.00,,,0.00,,2013-01-23 23:43:00,
2013-01-23 17:53:00,29.0,16.0,30.32,NNE,13,1.0,4.0,57,0.00,,,0.00,,2013-01-23 23:53:00,
2013-01-23 18:03:00,29.0,16.0,30.32,NNE,25,2.0,5.0,58,0.00,,,0.00,,2013-01-24 00:03:00,
2013-01-23 18:12:00,29.0,16.0,30.32,NNE,25,2.0,5.0,58,0.00,,,0.00,,2013-01-24 00:12:00,
2013-01-23 18:22:00,29.0,16.0,30.32,NNE,25,2.0,5.0,58,0.00,,,0.00,,2013-01-24 00:22:00,
2013-01-23 18:32:00,27.0,15.0,30.33,North,360,0.0,4.0,59,0.00,,,0.00,,2013-01-24 00:32:00,
2013-01-23 18:42:00,27.0,15.0,30.33,North,360,0.0,4.0,59,0.00,,,0.00,,2013-01-24 00:42:00,
2013-01-23 18:53:00,26.0,14.0,30.34,NE,55,0.0,4.0,59,0.00,,,0.00,,2013-01-24 00:53:00,
2013-01-23 19:03:00,26.0,14.0,30.35,North,360,0.0,4.0,60,0.00,,,0.00,,2013-01-24 01:03:00,
2013-01-23 19:12:00,26.0,14.0,30.35,North,360,0.0,4.0,60,0.00,,,0.00,,2013-01-24 01:12:00,
2013-01-23 19:23:00,25.0,13.0,30.37,NNE,14,3.0,6.0,59,0.00,,,0.00,,2013-01-24 01:23:00,
2013-01-23 19:33:00,25.0,13.0,30.36,North,5,4.0,7.0,59,0.00,,,0.00,,2013-01-24 01:33:00,
2013-01-23 19:42:00,25.0,13.0,30.36,North,5,4.0,7.0,59,0.00,,,0.00,,2013-01-24 01:42:00,
2013-01-23 19:52:00,24.0,12.0,30.36,North,11,2.0,6.0,60,0.00,,,0.00,,2013-01-24 01:52:00,
2013-01-23 20:02:00,23.0,11.0,30.37,North,360,3.0,6.0,59,0.00,,,0.00,,2013-01-24 02:02:00,
2013-01-23 20:12:00,23.0,11.0,30.37,North,360,3.0,6.0,59,0.00,,,0.00,,2013-01-24 02:12:00,
2013-01-23 20:22:00,23.0,11.0,30.36,North,355,3.0,8.0,60,0.00,,,0.00,,2013-01-24 02:22:00,
2013-01-23 20:33:00,22.0,11.0,30.37,North,5,2.0,6.0,61,0.00,,,0.00,,2013-01-24 02:33:00,
2013-01-23 20:42:00,22.0,11.0,30.37,North,5,2.0,6.0,61,0.00,,,0.00,,2013-01-24 02:42:00,
2013-01-23 20:52:00,22.0,11.0,30.37,North,5,2.0,6.0,61,0.00,,,0.00,,2013-01-24 02:52:00,
2013-01-23 21:02:00,21.0,10.0,30.40,NNE,13,0.0,2.0,63,0.00,,,0.00,,2013-01-24 03:02:00,
2013-01-23 21:12:00,21.0,10.0,30.40,NNE,13,0.0,2.0,63,0.00,,,0.00,,2013-01-24 03:12:00,
2013-01-23 21:22:00,21.0,10.0,30.40,NE,43,2.0,8.0,62,0.00,,,0.00,,2013-01-24 03:22:00,
2013-01-23 21:33:00,21.0,10.0,30.40,NNE,20,3.0,5.0,62,0.00,,,0.00,,2013-01-24 03:33:00,
2013-01-23 21:43:00,21.0,10.0,30.40,NNE,20,3.0,5.0,62,0.00,,,0.00,,2013-01-24 03:43:00,
2013-01-23 21:53:00,20.0,9.0,30.39,North,350,2.0,6.0,63,0.00,,,0.00,,2013-01-24 03:53:00,
2013-01-23 22:02:00,20.0,10.0,30.40,NE,37,1.0,3.0,64,0.00,,,0.00,,2013-01-24 04:02:00,
2013-01-23 22:12:00,20.0,10.0,30.40,NE,37,1.0,3.0,64,0.00,,,0.00,,2013-01-24 04:12:00,
2013-01-23 22:22:00,19.0,10.0,30.41,ENE,57,0.0,2.0,66,0.00,,,0.00,,2013-01-24 04:22:00,
2013-01-23 22:32:00,18.0,9.0,30.41,NE,48,1.0,3.0,67,0.00,,,0.00,,2013-01-24 04:32:00,
2013-01-23 22:42:00,18.0,9.0,30.41,NE,48,1.0,3.0,67,0.00,,,0.00,,2013-01-24 04:42:00,
2013-01-23 22:53:00,18.0,9.0,30.41,ENE,57,1.0,5.0,68,0.00,,,0.00,,2013-01-24 04:53:00,
2013-01-23 23:03:00,18.0,9.0,30.41,NE,44,2.0,5.0,67,0.00,,,0.00,,2013-01-24 05:03:00,
2013-01-23 23:12:00,18.0,9.0,30.41,NE,44,2.0,5.0,67,0.00,,,0.00,,2013-01-24 05:12:00,
2013-01-23 23:22:00,17.0,8.0,30.42,NE,51,1.0,5.0,68,0.00,,,0.00,,2013-01-24 05:22:00,
2013-01-23 23:33:00,16.0,7.0,30.42,NE,52,2.0,4.0,67,0.00,,,0.00,,2013-01-24 05:33:00,
2013-01-23 23:42:00,16.0,7.0,30.42,NE,52,2.0,4.0,67,0.00,,,0.00,,2013-01-24 05:42:00,
2013-01-23 23:53:00,16.0,7.0,30.42,ENE,64,1.0,5.0,68,0.00,,,0.00,,2013-01-24 05:53:00,